T 2005 Mar. 30.743 TT MPC
q 4.28168 (2000.0) P Q
Peri. 198.905 -0.945686 -0.183467
Node 33.360 -0.197703 +0.979896
e 1.0 Incl. 150.790 -0.258052 -0.078381
>From 51 observations 2005 May 12-15.
Finding Charts
Magnitudes Graph
m1 = 10.5 + 5 log d + 10.0 log r
The orbital elements are published on M.P.E.C. 2005-K01.
The charts are made with StellaNavigator Ver.2.0 for Windows
(AstroArts / ASCII).
The magnitudes graphs are made with Comet for Windows.
Copyright(C) Seiichi Yoshida (comet@aerith.net). All rights reserved.